Location: *
(51.4660°N, 0.3360°W)
Time: 02:32:34
(UTC+00:00)

Meteor 1-21 Rocket - Pass Details

Date: 19 September 2019
Orbit: 834 x 907 km, 81.2° (Epoch: 18 October)

Event Time Altitude Azimuth Distance (km) Brightness Sun altitude
Rises 20:50:36 0° 348° (NNW) 3,518 8.2 -24.4°
Reaches altitude 10° 20:53:05 10° 352° (N) 2,582 7.3 -24.7°
Maximum altitude 20:58:57 64° 74° (ENE) 1,002 4.3 -25.4°
Enters shadow 20:59:23 62° 97° (E) 1,018 4.3 -25.5°
